Weather observations for the past three days for
Ponca City, Ponca City Municipal Airport
Metric (Imperial)
Date Time (cdt) Wind (kph) Vis. (km) Weather Sky Cond. Temperature (ºC) Relative Humidity Wind Chill (°C) Heat Index (°C) Pressure Precipitation (cm)
Air Dwpt 6 hour altimeter (cm) sea level (mb) 1 hr 3 hr 6 hr
Max. Min.
06 03:53 N 19 16.09 Overcast OVC065 8.9 5 77% 6 76.17 1015.4
06 02:53 N 7 16.09 Overcast OVC060 8.9 7.2 89% 8 76.12 1014.6
06 01:53 N 9 16.09 Overcast BKN055 OVC110 8.9 6.7 86% 8 76.07 1014.1
06 00:53 NE 15 16.09 Overcast OVC055 9.4 6.1 10 8.9 80% 7 76.02 1013.4
05 23:53 NE 9 16.09 Overcast OVC050 9.4 6.1 80% 8 76.05 1013.6
05 22:53 NE 11 16.09 Overcast OVC050 8.9 5.6 80% 7 76.07 1013.9
05 21:53 NE 11 16.09 Overcast OVC047 9.4 5 74% 8 76.07 1014.1
05 20:53 NE 19 16.09 Overcast OVC046 10 4.4 68% 8 75.97 1012.5
05 19:53 NE 24 16.09 Overcast OVC042 10 3.3 63% 7 75.92 1011.9
05 18:53 NE 20 16.09 Overcast SCT025 OVC037 10 5.6 11.7 10 74% 8 75.87 1011.1
05 17:53 NE 30 G 41 16.09 Overcast OVC028 11.1 5 66% 75.84 1010.5
05 16:53 NE 26 G 46 16.09 Overcast SCT028 OVC038 11.1 5 66% 75.79 1010.0
05 15:53 NE 35 G 52 16.09 Overcast and Breezy OVC037 10 6.1 77% 7 75.79 1009.8
05 14:53 NE 43 G 57 16.09 Overcast and Windy BKN026 OVC034 10.6 5.6 71% 75.82 1010.1
05 13:53 NE 39 G 61 16.09 Overcast and Breezy OVC032 11.7 5 64% 75.74 1009.2
05 12:53 NE 44 G 59 16.09 Overcast and Windy OVC029 11.1 5.6 13.9 10.6 69% 75.69 1008.6
05 11:53 NE 43 G 61 16.09 Overcast and Windy OVC026 11.7 5 64% 75.64 1007.8
05 10:53 NE 41 G 70 16.09 Overcast and Breezy FEW019 OVC027 11.1 6.7 75% 75.57 1006.9
05 09:53 NE 41 G 69 16.09 Overcast and Breezy FEW017 OVC024 11.1 7.8 80% 75.51 1005.9
05 08:53 NE 43 G 57 16.09 Overcast and Windy OVC017 12.2 8.3 77% 75.49 1005.6
05 07:53 NE 37 G 54 16.09 Overcast and Breezy OVC017 12.8 9.4 80% 75.36 1003.8
05 06:53 NE 35 G 69 16.09 Overcast and Breezy FEW014 OVC030 13.9 10.6 20.6 13.9 81% 75.26 1002.6
05 05:53 NE 26 G 48 16.09 Overcast OVC030 17.2 13.3 78% 75.21 1001.6
05 04:53 E 26 G 43 16.09 Overcast BKN028 OVC035 19.4 13.9 71% 75.16 1000.7
05 03:53 E 19 16.09 Partly Cloudy SCT032 19.4 14.4 73% 75.11 1000.0
05 02:53 E 26 16.09 Fair CLR 19.4 15 76% 75.06 999.2
05 01:53 E 24 G 37 16.09 Fair CLR 20 14.4 70% 75.08 999.8
05 00:53 SE 19 G 35 16.09 A Few Clouds FEW036 20.6 14.4 25.6 20.6 68% 75.11 1000.1
04 23:53 E 22 G 35 16.09 Overcast OVC038 21.7 15 66% 75.13 1000.5
04 22:53 E 20 16.09 A Few Clouds FEW042 21.1 15.6 71% 75.16 1000.8
04 21:53 E 15 16.09 Thunderstorm in Vicinity FEW120 22.2 16.1 68% 75.11 1000.3
04 20:53 SE 19 16.09 Fair CLR 23.3 15.6 62% 75.11 1000.3
04 19:53 S 24 16.09 Fair CLR 24.4 15.6 58% 26 75.11 1000.3
04 18:53 S 20 16.09 Fair CLR 25.6 15 28.3 25.6 52% 26 75.11 1000.4
04 17:53 S 17 G 35 16.09 Fair CLR 26.7 14.4 47% 27 75.16 1001.0
04 16:53 S 17 G 33 16.09 Fair CLR 27.2 13.9 44% 27 75.18 1001.2
04 15:53 SW 20 G 31 16.09 Fair CLR 27.2 13.3 42% 27 75.23 1001.8
04 14:53 S 15 G 33 16.09 Fair CLR 27.8 13.3 41% 28 75.26 1002.2
04 13:53 SW 24 G 44 16.09 Fair CLR 27.2 11.7 38% 27 75.31 1002.9
04 12:53 S 19 G 46 16.09 Fair CLR 26.7 12.2 26.7 17.8 41% 27 75.36 1003.6
04 11:53 SW 20 G 43 16.09 Fair CLR 25.6 11.7 42% 26 75.39 1003.9
04 10:53 S 22 G 41 16.09 Fair CLR 24.4 11.1 43% 26 75.41 1004.1
04 09:53 SW 33 G 52 16.09 Fair and Breezy CLR 22.8 10 44% 75.44 1004.6
04 08:53 S 22 G 44 16.09 Fair CLR 21.1 10 49% 75.46 1004.8
04 07:53 S 15 G 28 16.09 Fair CLR 18.9 8.9 52% 75.46 1005.0
04 06:53 S 15 16.09 Fair CLR 17.8 7.8 20 17.8 52% 75.49 1005.1
04 05:53 S 17 G 31 16.09 Fair CLR 18.3 7.2 49% 75.49 1005.2
04 04:53 S 17 G 30 16.09 Fair CLR 18.9 7.2 47% 75.54 1005.9
04 03:53 S 17 G 37 16.09 Fair CLR 19.4 6.7 44% 75.57 1006.2
04 02:53 S 15 G 41 16.09 Fair CLR 20 6.1 40% 75.62 1006.7
04 01:53 S 11 16.09 Fair CLR 18.9 6.7 45% 75.64 1007.2
04 00:53 S 15 G 30 16.09 Fair CLR 19.4 6.7 27.2 19.4 44% 75.69 1007.8
03 23:53 S 15 G 33 16.09 Fair CLR 20.6 6.7 41% 75.69 1008.1
03 22:53 S 17 G 31 16.09 Fair CLR 21.1 6.1 38% 75.74 1008.7
03 21:53 S 15 G 30 16.09 Fair CLR 22.8 5 32% 75.74 1008.7
03 20:53 S 15 16.09 Fair CLR 23.3 5 31% 75.69 1008.3
03 19:53 S 13 16.09 Fair CLR 25.6 5 27% 26 75.67 1008.0
03 18:53 S 15 16.09 Fair CLR 26.7 5.6 30 26.7 26% 26 75.72 1008.5
03 17:53 SW 28 G 43 16.09 Fair CLR 28.9 3.3 19% 27 75.72 1008.7
03 16:53 SW 24 G 48 16.09 Fair CLR 29.4 2.8 18% 28 75.77 1009.2
03 15:53 SW 20 G 50 16.09 Fair CLR 29.4 3.3 19% 28 75.84 1010.0
03 14:53 S 20 G 37 16.09 Fair CLR 29.4 5.6 22% 28 75.92 1011.1
03 13:53 SW 22 G 43 16.09 Fair CLR 28.9 3.3 19% 27 76 1012.2
03 12:53 SW 17 G 28 16.09 Fair CLR 26.7 8.3 26.7 11.7 31% 26 76.1 1013.6
03 11:53 SW 17 G 28 16.09 Fair CLR 24.4 8.3 36% 25 76.17 1014.7
03 10:53 SW 13 16.09 Fair CLR 21.7 8.9 44% 76.2 1015.3
03 09:53 S 11 G 30 16.09 Fair CLR 19.4 8.9 51% 76.23 1015.5
03 08:53 S 11 16.09 Fair CLR 16.1 7.8 58% 76.23 1015.8
03 07:53 S 13 16.09 Fair CLR 13.3 5.6 60% 76.25 1016.0
03 06:53 S 13 16.09 Fair CLR 11.7 4.4 12.8 10.6 61% 76.23 1015.6
03 05:53 S 11 16.09 Fair CLR 11.7 5 64% 76.23 1015.6
03 04:53 S 7 16.09 Fair CLR 11.7 5 64% 76.28 1016.4
Date Time (cdt) Wind (kph) Vis. (km) Weather Sky Cond. Air Dwpt Max. Min. Relative Humidity Wind Chill (°C) Heat Index (°C) altimeter (cm) sea level (mb) 1 hr 3 hr 6 hr
6 hour
Temperature (ºC) Pressure Precipitation (cm)